[[{"header":{"parameterUnit":"m.s-1","parameterCategory":1,"la1":30.2991,"la2":30.254,"lo1":-89.0895,"lo2":-89.0444,"dy":0.0017,"dx":0.0017,"nx":28,"ny":28,"refTime":"2024-08-24T09:00:00:Z","depth":0,"parameterNumber":2,"parameterNumberName":"U-component_of_WINDS"},"data":[0,0,0,0,0,0,0,0,0,0,0,0,0,0,0,0,0,0,0,0,0,0,0,0,0,0,0,0,0,0,0,0,0,0,0,0,0,0,0,0,0,0,0,0,0,0,0,0,0,0,0,0,0,0,0,0,0,0,-4.7508,-4.7508,0,-4.7466,-4.7466,-4.7465,-4.7315,-4.7312,-4.7308,-4.7305,-4.7265,-4.7267,-4.7269,0,0,0,0,0,0,0,0,0,0,0,0,0,-4.7464,-4.7465,-4.7508,-4.7508,-4.7507,-4.7466,-4.7466,-4.7465,-4.7316,-4.7312,-4.7307,-4.7304,-4.7264,-4.7267,-4.727,0,0,0,0,0,0,0,0,0,0,0,0,0,-4.7459,-4.7466,-4.7508,-4.7428,-4.742,-4.7466,-4.7466,-4.7465,-4.7317,-4.7311,-4.7306,-4.7302,-4.7264,-4.7267,-4.727,-4.7392,0,0,-4.728,-4.7281,0,0,0,0,0,0,0,0,-4.7459,-4.746,-4.744,-4.7433,-4.7425,-4.7391,-4.7435,-4.7441,-4.7318,-4.7356,-4.7305,-4.7299,-4.7311,-4.731,-4.7314,-4.739,-4.7388,-4.728,-4.7282,-4.7283,-4.7284,0,0,0,0,0,0,0,-4.746,-4.7461,-4.7492,-4.744,-4.7431,-4.7395,-4.7389,-4.7435,-4.7363,-4.7352,-4.7341,-4.7338,-4.7306,-4.7311,-4.7312,-4.7388,-4.728,-4.7283,-4.7285,-4.7286,-4.7565,-4.757,0,0,0,0,0,0,-4.7471,-4.7463,-4.7493,-4.749,-4.743,-4.74,-4.7393,-4.7407,-4.7362,-4.735,-4.7343,-4.7331,-4.7308,-4.7308,-4.731,-4.7451,-4.7283,-4.7286,-4.7288,-4.7559,-4.7566,-4.7572,0,0,0,0,0,0,-4.7471,-4.7475,-4.7495,-4.7474,-4.7473,-4.7406,-4.7423,-4.7409,-4.7413,-4.7355,-4.7341,-4.7361,-4.7304,-4.7305,-4.7373,-4.7448,-4.7287,-4.729,-4.7553,-4.7561,-4.7569,-4.7735,0,0,0,0,0,0,-4.747,-4.7476,-4.752,-4.7476,-4.7475,-4.7558,-4.7428,-4.7412,-4.7419,-4.7404,-4.7368,-4.7357,-4.73,-4.7369,-4.7376,-4.7449,-4.7293,-4.7546,-4.7557,-4.7566,-4.7723,-4.7748,-4.777,0,0,0,0,0,-4.7469,-4.7569,-4.7523,-4.7528,-4.7529,-4.7562,-4.7562,-4.7494,-4.7425,-4.7471,-4.7433,-4.7358,-4.7438,-4.7377,-4.7384,-4.7459,-4.7541,-4.7554,-4.7566,-4.7712,-4.7743,-4.7769,0,0,0,0,0,0,-4.7624,-4.7561,-4.751,-4.7598,-4.7587,-4.7537,-4.7592,-4.7528,-4.7536,-4.7522,-4.7437,-4.7431,-4.7512,-4.7491,-4.7425,-4.7576,-4.7477,-4.7492,-4.7586,-4.7615,-4.7638,-4.7642,-4.7295,0,0,0,0,0,-4.7669,-4.77,-4.7644,-4.7727,-4.7724,-4.766,-4.7671,-4.762,-4.7605,-4.7599,-4.7566,-4.7556,-4.7579,-4.7596,-4.7613,-4.7719,-4.771,-4.7774,-4.7798,-4.7817,-4.7831,-4.7888,-4.7917,-4.7613,-4.7613,-4.7612,0,0,-4.7761,-4.7731,-4.7756,-4.7758,-4.7743,-4.7779,-4.7656,-4.7699,-4.7725,-4.7606,-4.7668,-4.7644,-4.7627,-4.7715,-4.7752,-4.7701,-4.7913,-4.7833,-4.7849,-4.7852,-4.7904,-4.7933,-4.7959,-4.7621,-4.762,-4.7618,0,0,-4.7948,-4.7928,-4.7996,-4.7984,-4.7962,-4.7919,-4.7936,-4.7896,-4.7876,-4.7937,-4.7849,-4.7879,-4.792,-4.7912,-4.7913,-4.81,-4.8033,-4.8108,-4.8232,-4.8289,-4.8313,-4.8334,-4.8403,-4.8428,-4.8122,-4.8123,-4.8123,0,-4.8066,-4.8116,-4.8039,-4.8088,-4.8093,-4.7986,-4.8056,-4.8048,-4.8035,-4.8041,-4.7984,-4.8034,-4.8014,-4.8101,-4.8147,-4.815,-4.8169,-4.8112,-4.8315,-4.8335,-4.8354,-4.8419,-4.8445,-4.8132,-4.8131,-4.813,-4.8129,0,-4.8263,-4.8299,-4.8357,-4.8346,-4.8357,-4.8417,-4.8351,-4.8372,-4.832,-4.8283,-4.8349,-4.8322,-4.8333,-4.835,-4.8299,-4.843,-4.8399,-4.833,-4.8229,-4.8394,-4.8453,-4.8478,-4.8146,-4.8142,-4.8139,-4.8137,0,0,-4.8546,-4.8494,-4.8517,-4.8512,-4.8482,-4.8509,-4.8564,-4.8575,-4.8596,-4.859,-4.8636,-4.8674,-4.8611,-4.8613,-4.856,-4.861,-4.8763,-4.8535,-4.8533,-4.858,-4.8909,-4.8962,-4.8992,-4.8718,-4.8722,-4.8726,-4.8911,0,-4.8726,-4.8817,-4.8751,-4.8854,-4.8888,-4.8788,-4.8837,-4.8825,-4.8793,-4.8818,-4.8783,-4.8812,-4.8724,-4.8725,-4.877,-4.8735,-4.8828,-4.8721,-4.8762,-4.8765,-4.8771,-4.9023,-4.9079,-4.9255,-4.8933,-4.8937,-4.894,0,-4.8947,-4.8952,-4.9059,-4.9024,-4.9036,-4.9081,-4.9087,-4.9111,-4.9097,-4.907,-4.9074,-4.9009,-4.9063,-4.8964,-4.9038,-4.8967,-4.898,-4.8966,-4.8971,-4.8973,-4.8864,-4.9034,-4.9309,-4.9337,-4.8976,-4.8973,-4.897,0,-4.9146,-4.9179,-4.9248,-4.9247,-4.9207,-4.9242,-4.9227,-4.9207,-4.9219,-4.9224,-4.9231,-4.9244,-4.9251,-4.9263,-4.9204,-4.9137,-4.9288,-4.9183,-4.927,-4.9272,-4.9307,-4.9306,-4.959,-4.9313,-4.9313,-4.9312,-4.9312,0,-4.9355,-4.9425,-4.9337,-4.938,-4.9456,-4.938,-4.9458,-4.9433,-4.9417,-4.9454,-4.9369,-4.9406,-4.9325,-4.9355,-4.931,-4.9381,-4.9384,-4.9366,-4.9353,-4.9374,-4.9377,-4.9383,-4.937,-4.9319,-4.9318,-4.9316,-4.9315,0,-4.959,-4.9534,-4.9603,-4.956,-4.9551,-4.961,-4.9574,-4.9613,-4.9575,-4.9624,-4.9631,-4.9573,-4.9604,-4.9546,-4.9569,-4.9539,-4.9639,-4.9606,-4.9644,-4.9635,-4.9727,-4.972,-5.0026,-5.0063,-4.9761,-4.9764,-4.9766,0,-4.9727,-4.9779,-4.9742,-4.9761,-4.9751,-4.9782,-4.9794,-4.9722,-4.9738,-4.9727,-4.9768,-4.9791,-4.9806,-4.986,-4.9821,-4.9839,-4.9808,-4.9914,-4.981,-4.9831,-4.9812,-4.9811,-4.9817,-4.9936,-4.994,-4.9943,-4.9945,0,-4.9978,-4.9948,-4.9968,-4.9979,-4.9996,-5.0001,-5.0,-5.0021,-4.9945,-4.9968,-4.9998,-5.001,-5.0034,-5.0059,-5.0069,-5.0055,-4.9989,-4.9978,-4.9999,-5.0023,-5.0043,-5.0036,-4.9705,-4.9971,-4.9969,-4.9967,-4.9965,-4.9964,-5.017,-5.0212,-5.0194,-5.0219,-5.0211,-5.0213,-5.0248,-5.0216,-5.0239,-5.0253,-5.0209,-5.0251,-5.0237,-5.0242,-5.0236,-5.0269,-5.0222,-5.0252,-5.026,-5.027,-5.0285,-5.0037,-5.027,-5.0269,-5.0268,-5.0268,-5.0267,0,-5.0418,-5.0402,-5.0426,-5.0428,-5.0449,-5.0384,-5.038,-5.0403,-5.044,-5.0432,-5.0449,-5.0485,-5.051,-5.0474,-5.0493,-5.0526,-5.0497,-5.0534,-5.0532,-5.053,-5.0325,-5.0305,-5.0558,-5.0558,-5.0558,-5.0558,-5.0557,-5.0557,-5.055,-5.0619,-5.0587,-5.0653,-5.0635,-5.0675,-5.0679,-5.0681,-5.0675,-5.0719,-5.0739,-5.0715,-5.0697,-5.0714,-5.0735,-5.0724,-5.0736,-5.0785,-5.0763,-5.0573,-5.0544,-5.0517,-5.0499,-5.0787,-5.0788,-5.0966,-5.0968,-5.0969]},{"header":{"parameterUnit":"m.s-1","parameterCategory":1,"la1":30.2991,"la2":30.254,"lo1":-89.0895,"lo2":-89.0444,"dy":0.0017,"dx":0.0017,"nx":28,"ny":28,"refTime":"2024-08-24T09:00:00:Z","depth":0,"parameterNumber":3,"parameterNumberName":"V-component_of_WINDS"},"data":[0,0,0,0,0,0,0,0,0,0,0,0,0,0,0,0,0,0,0,0,0,0,0,0,0,0,0,0,0,0,0,0,0,0,0,0,0,0,0,0,0,0,0,0,0,0,0,0,0,0,0,0,0,0,0,0,0,0,1.1741,1.174,0,1.172,1.172,1.1719,1.1744,1.1745,1.1746,1.1747,1.1719,1.1718,1.1716,0,0,0,0,0,0,0,0,0,0,0,0,0,1.1797,1.1795,1.1741,1.174,1.174,1.172,1.172,1.1719,1.1744,1.1745,1.1746,1.1747,1.172,1.1718,1.1716,0,0,0,0,0,0,0,0,0,0,0,0,0,1.1773,1.1795,1.1741,1.175,1.1751,1.172,1.172,1.1719,1.1743,1.1745,1.1746,1.1747,1.172,1.1718,1.1716,1.1673,0,0,1.1708,1.1707,0,0,0,0,0,0,0,0,1.1775,1.1771,1.1749,1.1749,1.175,1.1736,1.1729,1.1703,1.1743,1.1746,1.1747,1.1748,1.1723,1.1721,1.1713,1.1672,1.167,1.1708,1.1707,1.1706,1.1705,0,0,0,0,0,0,0,1.1776,1.1772,1.1732,1.1748,1.1749,1.1754,1.1752,1.1724,1.1727,1.1746,1.1748,1.1745,1.1724,1.1716,1.1713,1.167,1.1708,1.1706,1.1704,1.1704,1.1591,1.159,0,0,0,0,0,0,1.1778,1.1774,1.1733,1.1732,1.1766,1.1751,1.175,1.1739,1.1727,1.1727,1.1744,1.1746,1.1719,1.1716,1.1712,1.166,1.1706,1.1703,1.1702,1.1593,1.1591,1.1589,0,0,0,0,0,0,1.1779,1.1774,1.1734,1.1753,1.1748,1.1749,1.1737,1.1738,1.173,1.1726,1.1726,1.1736,1.172,1.1715,1.1683,1.1659,1.1702,1.17,1.1594,1.1592,1.159,1.1556,0,0,0,0,0,0,1.178,1.1774,1.1759,1.1753,1.1747,1.1706,1.1736,1.1736,1.1726,1.1729,1.1718,1.1717,1.1721,1.1686,1.168,1.1657,1.1698,1.1596,1.1593,1.1591,1.1559,1.1553,1.1548,0,0,0,0,0,1.1782,1.1749,1.1758,1.1753,1.1729,1.1705,1.1701,1.1708,1.1725,1.1708,1.1706,1.1718,1.1664,1.1683,1.1676,1.1652,1.1598,1.1594,1.1591,1.1562,1.1554,1.1548,0,0,0,0,0,0,1.175,1.1748,1.1758,1.1722,1.1714,1.1709,1.1688,1.1699,1.1684,1.1687,1.1694,1.1691,1.1656,1.1651,1.1672,1.161,1.1633,1.1628,1.1614,1.1606,1.1601,1.1601,1.1696,0,0,0,0,0,1.1739,1.1722,1.1721,1.1689,1.1684,1.1687,1.1677,1.1683,1.1673,1.1669,1.1664,1.1653,1.1633,1.162,1.1602,1.156,1.1557,1.154,1.1534,1.153,1.1524,1.15,1.1492,1.1578,1.1578,1.1578,0,0,1.1715,1.1713,1.17,1.1682,1.1676,1.1656,1.1684,1.1661,1.1646,1.1665,1.1634,1.163,1.1618,1.158,1.1563,1.1575,1.1501,1.1525,1.1522,1.1518,1.1496,1.1488,1.1481,1.1575,1.1576,1.1576,0,0,1.1662,1.1659,1.1632,1.1626,1.1617,1.162,1.1613,1.1607,1.1606,1.1576,1.159,1.1571,1.1537,1.1528,1.1519,1.1463,1.1473,1.1457,1.1425,1.1402,1.1395,1.1389,1.1367,1.136,1.1453,1.1453,1.1453,0,1.1632,1.1604,1.1616,1.1593,1.1583,1.1603,1.1575,1.1568,1.1553,1.1545,1.156,1.1518,1.1512,1.1471,1.1458,1.1451,1.1442,1.1457,1.1396,1.139,1.1384,1.1363,1.1355,1.1451,1.1451,1.1451,1.1451,0,1.1568,1.1549,1.1528,1.1515,1.1504,1.1478,1.1484,1.1471,1.1479,1.1479,1.1447,1.1441,1.1421,1.1413,1.1419,1.1373,1.138,1.1395,1.1418,1.1374,1.1354,1.1347,1.1448,1.1448,1.1449,1.1449,0,0,1.149,1.1486,1.1478,1.1472,1.1465,1.1449,1.1424,1.1407,1.1395,1.1385,1.1363,1.1335,1.1349,1.1339,1.1344,1.1324,1.1279,1.1342,1.1341,1.1328,1.1225,1.1212,1.1202,1.1287,1.1285,1.1284,1.1225,0,1.1434,1.1393,1.1403,1.1361,1.1342,1.1361,1.1339,1.1332,1.1332,1.1315,1.1315,1.1294,1.1316,1.1309,1.1291,1.1288,1.1258,1.1293,1.1263,1.1262,1.1262,1.1193,1.1178,1.1123,1.1218,1.1217,1.1216,0,1.1363,1.1352,1.1308,1.1305,1.1297,1.1277,1.1263,1.1247,1.1239,1.124,1.123,1.124,1.1213,1.124,1.1202,1.1226,1.1215,1.1212,1.121,1.1205,1.1234,1.1182,1.1106,1.1096,1.1204,1.1205,1.1206,0,1.1307,1.1282,1.1252,1.1247,1.1243,1.1228,1.1225,1.1219,1.1208,1.1195,1.1188,1.1172,1.1162,1.1148,1.1153,1.1172,1.1113,1.1141,1.1111,1.1111,1.1095,1.1095,1.1012,1.1093,1.1093,1.1093,1.1094,0,1.1242,1.1214,1.1227,1.1208,1.1177,1.119,1.1158,1.1157,1.1152,1.1132,1.1148,1.1129,1.1138,1.1119,1.1123,1.109,1.1086,1.1085,1.1085,1.1081,1.1081,1.1071,1.1074,1.1091,1.1092,1.1092,1.1093,0,1.1173,1.1181,1.115,1.1149,1.1149,1.1125,1.1124,1.1106,1.1109,1.1084,1.1079,1.1082,1.1061,1.1066,1.1041,1.1044,1.1002,1.1009,1.1005,1.1005,1.0975,1.0976,1.0879,1.0866,1.0959,1.0958,1.0957,0,1.1129,1.1108,1.1106,1.1095,1.1092,1.1074,1.1064,1.1076,1.1064,1.1054,1.1036,1.1017,1.1002,1.0967,1.0966,1.0947,1.0952,1.092,1.0949,1.0945,1.0948,1.0948,1.0945,1.0912,1.0911,1.091,1.091,0,1.1049,1.1055,1.104,1.1028,1.1016,1.1006,1.0997,1.0987,1.0998,1.0984,1.0963,1.0952,1.0929,1.0908,1.0892,1.0887,1.0899,1.0901,1.0893,1.0886,1.0884,1.0882,1.0985,1.0902,1.0903,1.0904,1.0904,1.0904,1.0989,1.0971,1.0967,1.095,1.0946,1.0938,1.0921,1.0923,1.0907,1.089,1.0898,1.0874,1.0866,1.0846,1.0839,1.0819,1.0831,1.082,1.0816,1.0812,1.0807,1.0891,1.0817,1.0817,1.0817,1.0817,1.0817,0,1.0907,1.0907,1.0892,1.088,1.0867,1.0884,1.0875,1.0862,1.0841,1.0835,1.082,1.0796,1.0777,1.0776,1.0758,1.0742,1.0747,1.0736,1.0736,1.0734,1.0799,1.0807,1.0733,1.0733,1.0733,1.0733,1.0733,1.0733,1.0863,1.0833,1.0839,1.0806,1.0806,1.0784,1.0777,1.0769,1.0764,1.0737,1.0722,1.0723,1.0718,1.07,1.0682,1.0682,1.0673,1.066,1.0661,1.0721,1.073,1.0737,1.0745,1.0659,1.0659,1.0598,1.0597,1.0597]}]]